Regional Weather Roundup
Issued by NWS Cleveland, OH

Home | Current Version | Previous Version | Graphics & Text | Print | Product List | Glossary Off
Versions: 1 2 3 4 5 6 7 8 9 10 11 12 13 14 15 16 17 18 19 20 21 22 23 24 25 26 27 28 29 30 31 32 33 34 35 36 37 38 39 40 41 42 43 44 45 46 47 48 49 50

000
ASUS41 KCLE 292312
RWRCLE
OHIO REGIONAL WEATHER ROUNDUP
NATIONAL WEATHER SERVICE WILMINGTON, OH
700 PM EDT SUN MAY 29 2016

NOTE: "FAIR" INDICATES FEW OR NO CLOUDS BELOW 12,000 FEET WITH NO
SIGNIFICANT WEATHER AND/OR OBSTRUCTIONS TO VISIBILITY.

OHZ001>008-015>018-024>027-034-035-043-044-300000-
   NORTHWEST OHIO

CITY           SKY/WX    TMP DP  RH WIND       PRES   REMARKS
DEFIANCE       FAIR      87  51  28 W13G20    29.94F
FINDLAY        FAIR      85  58  39 W20G26    29.93F
TOLEDO EXPRESS FAIR      81  63  54 SW9       29.91F
TOLEDO EXEC    FAIR      86  58  38 SW17      29.92F
LIMA           FAIR      84  62  47 W13       29.96F
$$

OHZ009>014-019>023-028>033-038-089-300000-
   NORTHEAST OHIO

CITY           SKY/WX    TMP DP  RH WIND       PRES   REMARKS
CLE-HOPKINS    PTSUNNY   84  63  49 S16       29.97F
CLE-LAKEFRONT  FAIR      84  62  47 S15G23    29.94F
CUY CO. ARPT   CLOUDY    82  66  57 S14       29.98F
LORAIN-ELYRIA  FAIR      81  63  54 S13       29.95F
ASHTABULA      FAIR      78  66  66 S6        30.01F
AKRON-CANTON   CLOUDY    78  63  59 SW9       30.02F
WOOSTER        FAIR      82  61  48 S12       30.00F
MANSFIELD      TSTM      71  58  63 SW20G26   30.03R
YOUNGSTOWN     CLOUDY    74  59  59 SE8       30.04S
$$

OHZ042-051>053-060>062-070>072-077>081-300000-
  SOUTHWEST OHIO

CITY           SKY/WX    TMP DP  RH WIND       PRES   REMARKS
CINC-COVINGTON FAIR      83  65  54 SW10      30.01S
CINC-LUNKEN    FAIR      83  67  58 SW7       29.99S
HAMILTON       FAIR      85  65  51 SW10      29.99F
DAYTON         FAIR      75  64  68 SE8       30.00S
WRIGHT-PAT AFB PTSUNNY   75  65  70 E8        29.99F THUNDER
DAYTON GENERAL PTSUNNY   83  63  50 MISG      29.99S
WILMINGTON     FAIR      81  67  62 SW9       30.01S
$$

OHZ036-037-039>041-045>050-054>059-063>069-073>076-082>088-300000-
  CENTRAL AND SOUTHEAST OHIO

CITY           SKY/WX    TMP DP  RH WIND       PRES   REMARKS
COLUMBUS       PTSUNNY   81  61  50 S8        29.99S THUNDER
OSU AIRPORT    PTSUNNY   79  66  64 SW13      30.01R
BOLTON FIELD   TSTM      70  63  78 SW17      30.04R
RICKENBACK AFB PTSUNNY   80  63  55 S9        29.99S THUNDER
NEWARK         FAIR      83  62  49 S12       30.01S
MARION         FAIR      69  60  73 SE10G21   29.99F
LANCASTER      FAIR      81  64  56 S9        30.02S
ZANESVILLE     FAIR      74  63  68 SE8       30.05F
NEW PHILLY     FAIR      75  60  59 SE10G17   30.05S
$$




USA.gov is the U.S. government's official web portal to all federal, state and local government web resources and services.